Weather in Komsomolets

Russia / Volgograd Oblast     49°57′25″N   45°38′27″E
temp.,
°C
wind,
m/s
gust,
m/s
humid.,
%
clouds,
%
prec.,
mm/h
press.,
hPa
HPBL,
m
6 august, fri
fri600:00+21ne45435 0.0 101668
03:00+19ne33485 0.0 101632
06:00+20ne344654 0.0 1016117
09:00+27ene33305 0.0 1016978
12:00+30ne43234 0.0 10152152
15:00+32ne44205 0.0 10142480
18:00+31ene552049 0.0 10131943
21:00+25e51029100 0.0 1014153
7 august, sat
sat700:00+22ene483554 0.0 1014129
03:00+20ene4736100 0.0 101499
06:00+22ene4103311 0.0 1014260
09:00+29ese6718100 0.0 10141098
12:00+33ese661691 0.0 10132222
15:00+35ese5515100 0.0 10122635
18:00+32e5717100 0.0 1012322
21:00+28e4922100 0.0 1012142
8 august, sun
sun800:00+25e492698 0.0 1013136
03:00+23e47315 0.0 1014103
06:00+24e41231100 0.0 1014330
09:00+32ese891799 0.0 10151152
12:00+35ese8815100 0.0 10141998
15:00+35e7814100 0.0 10142134
18:00+34ese791699 0.0 10141598
21:00+31e61322100 0.0 1014428
9 august, mon
mon900:00+30e61425100 0.0 1014527
03:00+26ene51033100 0.0 1015244
06:00+28e6133198 0.0 1016706
09:00+31e91224100 0.0 10161113
12:00+33e101118100 0.0 1015929
15:00+32ese71017100 0.0 1016979
18:00+32e6111832 0.0 1015598
21:00+28ene4823100 0.0 1016110
10 august, tue
tue1000:00+25ene51224100 0.0 1015205
03:00+25ene6132592 0.0 1014269
06:00+25ene51330100 0.0 1014362
09:00+33e81020100 0.0 1013998
12:00+36e81015100 0.0 10122017
15:00+37ese9111597 0.0 10102861
18:00+32sse5924100 0.0 1010471
21:00+28e3537100 0.0 101093